Time,TemperatureF,DewpointF,PressureIn,WindDirection,WindDirectionDegrees,WindSpeedMPH,WindSpeedGustMPH,Humidity,HourlyPrecipIn,Conditions,Clouds,dailyrainin,SolarRadiationWatts/m^2,SoftwareType,DateUTC
2013-05-24 00:11:00,40.0,34.0,-100.00,NE,36,5.0,7.0,79,0.00,,,0.01,0.000000,,2013-05-24 07:11:00,
2013-05-24 00:22:00,40.0,34.0,-100.00,NE,36,5.0,7.0,79,0.00,,,0.01,0.000000,,2013-05-24 07:22:00,
2013-05-24 00:31:00,40.0,34.0,-100.00,NE,36,5.0,7.0,79,0.00,,,0.01,0.000000,,2013-05-24 07:31:00,
2013-05-24 00:41:00,40.0,34.0,-100.00,NE,36,5.0,7.0,79,0.00,,,0.01,0.000000,,2013-05-24 07:41:00,
2013-05-24 01:11:00,38.0,34.0,-100.00,North,349,4.0,7.0,86,0.00,,,0.01,0.000000,,2013-05-24 08:11:00,
2013-05-24 01:22:00,38.0,34.0,-100.00,North,349,4.0,7.0,86,0.00,,,0.01,0.000000,,2013-05-24 08:22:00,
2013-05-24 01:32:00,38.0,34.0,-100.00,North,349,4.0,7.0,86,0.00,,,0.01,0.000000,,2013-05-24 08:32:00,
2013-05-24 01:41:00,38.0,34.0,-100.00,North,349,4.0,7.0,86,0.00,,,0.01,0.000000,,2013-05-24 08:41:00,
2013-05-24 02:11:00,39.0,37.0,-100.00,NW,318,6.0,7.0,92,0.00,,,0.01,0.000000,,2013-05-24 09:11:00,
2013-05-24 02:21:00,39.0,37.0,-100.00,NW,318,6.0,7.0,92,0.00,,,0.01,0.000000,,2013-05-24 09:21:00,
2013-05-24 02:32:00,39.0,37.0,-100.00,NW,318,6.0,7.0,92,0.00,,,0.01,0.000000,,2013-05-24 09:32:00,
2013-05-24 02:42:00,39.0,37.0,-100.00,NW,318,6.0,7.0,92,0.00,,,0.01,0.000000,,2013-05-24 09:42:00,
2013-05-24 03:12:00,39.0,37.0,-100.00,NW,306,7.0,7.0,92,0.00,,,0.01,0.000000,,2013-05-24 10:12:00,
2013-05-24 03:22:00,39.0,37.0,-100.00,NW,306,7.0,7.0,92,0.00,,,0.01,0.000000,,2013-05-24 10:22:00,
2013-05-24 03:32:00,39.0,37.0,-100.00,NW,306,7.0,7.0,92,0.00,,,0.01,0.000000,,2013-05-24 10:32:00,
2013-05-24 03:42:00,39.0,37.0,-100.00,NW,306,7.0,7.0,92,0.00,,,0.01,0.000000,,2013-05-24 10:42:00,
2013-05-24 04:12:00,40.0,38.0,-100.00,NW,318,6.0,8.0,91,0.00,,,0.01,0.000000,,2013-05-24 11:12:00,
2013-05-24 04:22:00,40.0,38.0,-100.00,NW,318,6.0,8.0,91,0.00,,,0.01,0.000000,,2013-05-24 11:22:00,
2013-05-24 04:32:00,40.0,38.0,-100.00,NW,318,6.0,8.0,91,0.00,,,0.01,0.000000,,2013-05-24 11:32:00,
2013-05-24 04:41:00,40.0,38.0,-100.00,NW,318,6.0,8.0,91,0.00,,,0.01,0.000000,,2013-05-24 11:41:00,
2013-05-24 05:11:00,40.0,38.0,-100.00,NNW,338,5.0,7.0,92,0.00,,,0.01,0.000000,,2013-05-24 12:11:00,
2013-05-24 05:21:00,40.0,38.0,-100.00,NNW,338,5.0,7.0,92,0.00,,,0.01,0.000000,,2013-05-24 12:21:00,
2013-05-24 05:32:00,40.0,38.0,-100.00,NNW,338,5.0,7.0,92,0.00,,,0.01,0.000000,,2013-05-24 12:32:00,
2013-05-24 05:42:00,40.0,38.0,-100.00,NNW,338,5.0,7.0,92,0.00,,,0.01,0.000000,,2013-05-24 12:42:00,
2013-05-24 06:11:00,38.0,36.0,-100.00,NW,308,6.0,7.0,91,0.00,,,0.01,0.000000,,2013-05-24 13:11:00,
2013-05-24 06:21:00,38.0,36.0,-100.00,NW,308,6.0,7.0,91,0.00,,,0.01,0.000000,,2013-05-24 13:21:00,
2013-05-24 06:31:00,38.0,36.0,-100.00,NW,308,6.0,7.0,91,0.00,,,0.01,0.000000,,2013-05-24 13:31:00,
2013-05-24 06:41:00,38.0,36.0,-100.00,NW,308,6.0,7.0,91,0.00,,,0.01,0.000000,,2013-05-24 13:41:00,
2013-05-24 07:11:00,42.0,39.0,-100.00,NNW,331,5.0,7.0,88,0.00,,,0.01,13.000000,,2013-05-24 14:11:00,
2013-05-24 07:21:00,42.0,39.0,-100.00,NNW,331,5.0,7.0,88,0.00,,,0.01,13.000000,,2013-05-24 14:21:00,
2013-05-24 07:31:00,42.0,39.0,-100.00,NNW,331,5.0,7.0,88,0.00,,,0.01,13.000000,,2013-05-24 14:31:00,
2013-05-24 07:42:00,42.0,39.0,-100.00,NNW,331,5.0,7.0,88,0.00,,,0.01,13.000000,,2013-05-24 14:42:00,
2013-05-24 08:11:00,49.0,39.0,-100.00,NNE,20,9.0,13.0,67,0.00,,,0.01,186.000000,,2013-05-24 15:11:00,
2013-05-24 08:21:00,49.0,39.0,-100.00,NNE,20,9.0,13.0,67,0.00,,,0.01,186.000000,,2013-05-24 15:21:00,
2013-05-24 08:32:00,49.0,39.0,-100.00,NNE,20,9.0,13.0,67,0.00,,,0.01,186.000000,,2013-05-24 15:32:00,
2013-05-24 08:43:00,49.0,39.0,-100.00,NNE,20,9.0,13.0,67,0.00,,,0.01,186.000000,,2013-05-24 15:43:00,
2013-05-24 09:12:00,52.0,37.0,-100.00,ENE,58,10.0,14.0,56,0.00,,,0.01,209.000000,,2013-05-24 16:12:00,
2013-05-24 09:22:00,52.0,37.0,-100.00,ENE,58,10.0,14.0,56,0.00,,,0.01,209.000000,,2013-05-24 16:22:00,
2013-05-24 09:42:00,52.0,37.0,-100.00,ENE,58,10.0,14.0,56,0.00,,,0.01,209.000000,,2013-05-24 16:42:00,
2013-05-24 10:12:00,50.0,35.0,-100.00,ENE,69,10.0,19.0,57,0.00,,,0.01,316.000000,,2013-05-24 17:12:00,
2013-05-24 10:22:00,50.0,35.0,-100.00,ENE,69,10.0,19.0,57,0.00,,,0.01,316.000000,,2013-05-24 17:22:00,
2013-05-24 10:32:00,50.0,35.0,-100.00,ENE,69,10.0,19.0,57,0.00,,,0.01,316.000000,,2013-05-24 17:32:00,
2013-05-24 10:41:00,50.0,35.0,-100.00,ENE,69,10.0,19.0,57,0.00,,,0.01,316.000000,,2013-05-24 17:41:00,
2013-05-24 11:11:00,50.0,38.0,-100.00,SE,125,6.0,14.0,62,0.00,,,0.01,108.000000,,2013-05-24 18:11:00,
2013-05-24 11:21:00,50.0,38.0,-100.00,SE,125,6.0,14.0,62,0.00,,,0.01,108.000000,,2013-05-24 18:21:00,
2013-05-24 11:32:00,50.0,38.0,-100.00,SE,125,6.0,14.0,62,0.00,,,0.01,108.000000,,2013-05-24 18:32:00,
2013-05-24 11:41:00,50.0,38.0,-100.00,SE,125,6.0,14.0,62,0.00,,,0.01,108.000000,,2013-05-24 18:41:00,
2013-05-24 12:11:00,52.0,37.0,-100.00,SSE,151,8.0,15.0,56,0.00,,,0.00,343.000000,,2013-05-24 19:11:00,
2013-05-24 12:21:00,52.0,37.0,-100.00,SSE,151,8.0,15.0,56,0.00,,,0.00,343.000000,,2013-05-24 19:21:00,
2013-05-24 12:31:00,52.0,37.0,-100.00,SSE,151,8.0,15.0,56,0.00,,,0.00,343.000000,,2013-05-24 19:31:00,
2013-05-24 12:41:00,52.0,37.0,-100.00,SSE,151,8.0,15.0,56,0.00,,,0.00,343.000000,,2013-05-24 19:41:00,
2013-05-24 13:11:00,52.0,36.0,-100.00,South,182,9.0,16.0,54,0.00,,,0.00,535.000000,,2013-05-24 20:11:00,
2013-05-24 13:21:00,52.0,36.0,-100.00,South,182,9.0,16.0,54,0.00,,,0.00,535.000000,,2013-05-24 20:21:00,
2013-05-24 13:31:00,52.0,36.0,-100.00,South,182,9.0,16.0,54,0.00,,,0.00,535.000000,,2013-05-24 20:31:00,
2013-05-24 13:41:00,52.0,36.0,-100.00,South,182,9.0,16.0,54,0.00,,,0.00,535.000000,,2013-05-24 20:41:00,
2013-05-24 14:11:00,57.0,36.0,-100.00,South,176,3.0,12.0,46,0.00,,,0.00,813.000000,,2013-05-24 21:11:00,
2013-05-24 14:21:00,57.0,36.0,-100.00,South,176,3.0,12.0,46,0.00,,,0.00,813.000000,,2013-05-24 21:21:00,
2013-05-24 14:32:00,57.0,36.0,-100.00,South,176,3.0,12.0,46,0.00,,,0.00,813.000000,,2013-05-24 21:32:00,
2013-05-24 14:42:00,57.0,36.0,-100.00,South,176,3.0,12.0,46,0.00,,,0.00,813.000000,,2013-05-24 21:42:00,
2013-05-24 15:12:00,57.0,36.0,-100.00,SSW,212,3.0,11.0,45,0.00,,,0.00,655.000000,,2013-05-24 22:12:00,
2013-05-24 15:22:00,57.0,36.0,-100.00,SSW,212,3.0,11.0,45,0.00,,,0.00,655.000000,,2013-05-24 22:22:00,
2013-05-24 15:32:00,57.0,36.0,-100.00,SSW,212,3.0,11.0,45,0.00,,,0.00,655.000000,,2013-05-24 22:32:00,
2013-05-24 15:42:00,57.0,36.0,-100.00,SSW,212,3.0,11.0,45,0.00,,,0.00,655.000000,,2013-05-24 22:42:00,
2013-05-24 16:11:00,56.0,38.0,-100.00,SSE,149,8.0,14.0,50,0.00,,,0.00,594.000000,,2013-05-24 23:11:00,
2013-05-24 16:22:00,56.0,38.0,-100.00,SSE,149,8.0,14.0,50,0.00,,,0.00,594.000000,,2013-05-24 23:22:00,
2013-05-24 16:32:00,56.0,38.0,-100.00,SSE,149,8.0,14.0,50,0.00,,,0.00,594.000000,,2013-05-24 23:32:00,
2013-05-24 16:42:00,56.0,38.0,-100.00,SSE,149,8.0,14.0,50,0.00,,,0.00,594.000000,,2013-05-24 23:42:00,
2013-05-24 17:11:00,54.0,35.0,-100.00,SSE,149,9.0,14.0,49,0.00,,,0.00,526.000000,,2013-05-25 00:11:00,
2013-05-24 17:21:00,54.0,35.0,-100.00,SSE,149,9.0,14.0,49,0.00,,,0.00,526.000000,,2013-05-25 00:21:00,
2013-05-24 17:32:00,54.0,35.0,-100.00,SSE,149,9.0,14.0,49,0.00,,,0.00,526.000000,,2013-05-25 00:32:00,
2013-05-24 17:41:00,54.0,35.0,-100.00,SSE,149,9.0,14.0,49,0.00,,,0.00,526.000000,,2013-05-25 00:41:00,
2013-05-24 18:11:00,52.0,42.0,-100.00,WSW,241,7.0,15.0,68,0.01,,,0.01,217.000000,,2013-05-25 01:11:00,
2013-05-24 18:22:00,52.0,42.0,-100.00,WSW,241,7.0,15.0,68,0.01,,,0.01,217.000000,,2013-05-25 01:22:00,
2013-05-24 18:32:00,52.0,42.0,-100.00,WSW,241,7.0,15.0,68,0.01,,,0.01,217.000000,,2013-05-25 01:32:00,
2013-05-24 18:41:00,52.0,42.0,-100.00,WSW,241,7.0,15.0,68,0.01,,,0.01,217.000000,,2013-05-25 01:41:00,
2013-05-24 19:11:00,53.0,38.0,-100.00,SSW,193,2.0,10.0,56,0.00,,,0.01,70.000000,,2013-05-25 02:11:00,
2013-05-24 19:21:00,53.0,38.0,-100.00,SSW,193,2.0,10.0,56,0.00,,,0.01,70.000000,,2013-05-25 02:21:00,
2013-05-24 19:31:00,53.0,38.0,-100.00,SSW,193,2.0,10.0,56,0.00,,,0.01,70.000000,,2013-05-25 02:31:00,
2013-05-24 19:42:00,53.0,38.0,-100.00,SSW,193,2.0,10.0,56,0.00,,,0.01,70.000000,,2013-05-25 02:42:00,
2013-05-24 20:11:00,55.0,41.0,-100.00,South,178,1.0,6.0,59,0.00,,,0.01,13.000000,,2013-05-25 03:11:00,
2013-05-24 20:21:00,55.0,41.0,-100.00,South,178,1.0,6.0,59,0.00,,,0.01,13.000000,,2013-05-25 03:21:00,
2013-05-24 20:32:00,55.0,41.0,-100.00,South,178,1.0,6.0,59,0.00,,,0.01,13.000000,,2013-05-25 03:32:00,
2013-05-24 20:43:00,55.0,41.0,-100.00,South,178,1.0,6.0,59,0.00,,,0.01,13.000000,,2013-05-25 03:43:00,
2013-05-24 21:12:00,47.0,37.0,-100.00,South,188,5.0,8.0,69,0.00,,,0.01,0.000000,,2013-05-25 04:12:00,
2013-05-24 21:23:00,47.0,37.0,-100.00,South,188,5.0,8.0,69,0.00,,,0.01,0.000000,,2013-05-25 04:23:00,
2013-05-24 21:32:00,47.0,37.0,-100.00,South,188,5.0,8.0,69,0.00,,,0.01,0.000000,,2013-05-25 04:32:00,
2013-05-24 21:43:00,47.0,37.0,-100.00,South,188,5.0,8.0,69,0.00,,,0.01,0.000000,,2013-05-25 04:43:00,
2013-05-24 22:12:00,43.0,38.0,-100.00,SW,216,5.0,8.0,84,0.00,,,0.01,0.000000,,2013-05-25 05:12:00,
2013-05-24 22:22:00,43.0,38.0,-100.00,SW,216,5.0,8.0,84,0.00,,,0.01,0.000000,,2013-05-25 05:22:00,
2013-05-24 22:32:00,43.0,38.0,-100.00,SW,216,5.0,8.0,84,0.00,,,0.01,0.000000,,2013-05-25 05:32:00,
2013-05-24 22:42:00,43.0,38.0,-100.00,SW,216,5.0,8.0,84,0.00,,,0.01,0.000000,,2013-05-25 05:42:00,
2013-05-24 23:12:00,42.0,35.0,-100.00,WSW,250,3.0,7.0,75,0.00,,,0.01,0.000000,,2013-05-25 06:12:00,
2013-05-24 23:21:00,42.0,35.0,-100.00,WSW,250,3.0,7.0,75,0.00,,,0.01,0.000000,,2013-05-25 06:21:00,
2013-05-24 23:32:00,42.0,35.0,-100.00,WSW,250,3.0,7.0,75,0.00,,,0.01,0.000000,,2013-05-25 06:32:00,
2013-05-24 23:42:00,42.0,35.0,-100.00,WSW,250,3.0,7.0,75,0.00,,,0.01,0.000000,,2013-05-25 06:42:00,